STARLINK-32443, 61672

Orbit data source: Space-Track

STARLINK-32443, 61672 is a payload satellite owned by SpaceX/Seattle (US) in LEO that was launched on Sat, 26 Oct 2024 UTC via an FALCON 9 launch vehicle from the Air Force Eastern Test Range (AFETR). Payload-class satellites include a variety of spacecraft equipped with specific instruments for various scientific and technological missions. These include communications satellites like Starlink; space stations such as the ISS; scientific satellites like the Hubble; Earth observation satellites from companies like Planet Labs, Umbra, and HawkEye 360; GPS; miniature CubeSats for education and research; and military/defense satellites.

Loading next visibility...
Identifier
61672, 2024-193M
Orbit
LEO
Last TLE update
21 hours ago
Origin
Manufacturer
SpaceX/Seattle
Mission
Operational Commercial Communications
Bus & Motor
STARLINK V2M, Unknown motor
Mass
730 kg wet, ~700 kg dry
Launch date (UTC)
2024-10-26 (8 months ago)
Launch vehicle
FALCON 9
Launch site
Air Force Eastern Test Range (AFETR)
Object type
Payload
Rocket body
Debris
Shape & HBR
Box + 2 Pan, 29 m
Radar Cross Section
36.964 m², Large (>1 m²)

Expand to show TLE details & history

TLE from 21 hours ago
0 STARLINK-32443
1 61672U 24193M   25181.47884298  .00001054  00000-0  47728-4 0  9990
2 61672  53.1601 182.3853 0001161  81.4742 278.6391 15.30195689 37918
Epoch: 2025-06-30T11:29Z
TLE epoch observation values (Epoch: 2025-06-30T11:29:32.033Z)
Latitude
0.00003°
Longitude
91.21379°
Altitude
476.008 km
Speed
7.629 km/s
True Right ascension
12h 09m 32s
True Declination
0° 00' 00"
Sunlit
Object was in daylight at epoch
Visualization orbit readout
Latitude
3.93311°
Longitude
-95.81495°
Altitude
475.707 km
Speed
7.629 km/s
Apparent Right ascension
02h 42m 51s
Apparent Declination
-33° 50' 03"
Sunlit
Object is in daylight
Visualization observer readout
Local Sidereal Time
20:16:03
Azimuth
113.859° SE
Elevation
-25.569°
Doppler factor
1
Orbital elements
Apogee altitude
476.28 km
Perigee altitude
474.689 km
Semi-major axis
6,853.621 km
Eccentricity
0.00012
Inclination
53.1601°
RAAN
182.3853°
Arg. of periapsis
81.4742°
True anomaly
Unknown
Mean anomaly
278.6391°
Eccentric anomaly
Unknown
Mean motion
3.82528 °/min
Orbital period
94.11 mins
BSTAR
0.000047728
Loading maneuver chart data...
Loading SW <> Apogee altitude chart data...
Loading historical data...
Loading historical data...
Loading historical data...
Loading historical data...
Loading historical data...
Loading historical data...
Loading historical data...

STARLINK-32443 Visibility forecast

Observer location: undefined°, undefined°

Span
Click to sort rows by Start time (UTC) header in descending order
Start Az.
Max El. time (UTC)
Max El. Az.
Max El.
End time (UTC)
End Az.
6 mins2025-07-01 09:56:54.747Z301.182° NW2025-07-01 09:59:54.747Z242.19° WSW39.166°2025-07-01 10:02:54.747Z148.747° SSE
5 mins2025-07-02 02:53:54.747Z255.647° W2025-07-02 02:55:54.747Z344.445° N38.974°2025-07-02 02:58:54.747Z41.773° NE
4 mins2025-07-02 07:50:54.747Z350.901° N2025-07-02 07:52:54.747Z35.802° NE19.577°2025-07-02 07:54:54.747Z71.951° E
|